Location: Forst
(46.9333°N, 15.4333°E)
Time: 09:53:23
(UTC+00:00)

N. Korean satellite - Pass Details

Date: 26 September 2021
Orbit: 450 x 495 km, 97.3° (Epoch: 15 October)

Event Time Altitude Azimuth Distance (km) Brightness Sun altitude
Rises 03:03:06 0° 35° (NE) 2,531 11.1 -18.8°
Reaches altitude 10° 03:06:58 10° 79° (E) 1,659 10.5 -18.2°
Maximum altitude 03:07:35 10° 89° (E) 1,639 10.4 -18.1°
Drops below altitude 10° 03:08:12 10° 99° (E) 1,661 10.2 -18.0°
Sets 03:12:05 0° 142° (SE) 2,546 10.5 -17.4°
